Temp
12 12 12 12 12 13 13 13 14 14 14 14 14 14 14 14 15 15 14 14 14 14 15 15 15 15 15 15 15 15 15 15 16 16 16 16 15 14 15 15 14 14 14 14 14
11 12 12 12 12 12 13 13 14 14 15 15 14 14 14 15 15 15 15 14 14 14 15 16 15 15 16 15 15 15 16 16 16 15 16 15 15 15 15 14 14 14 14 14 13
11 11 12 12 12 12 12 13 13 14 14 15 15 15 15 15 15 15 15 14 14 14 15 16 16 16 15 15 15 16 16 16 16 16 16 15 15 15 14 15 15 14 14 14 13
10 11 11 12 12 12 12 12 13 13 14 14 15 15 15 15 15 15 15 15 14 14 15 16 16 16 15 15 16 17 16 16 16 16 16 15 15 14 15 15 15 14 15 14 13
10 11 11 11 12 12 12 12 13 13 13 14 14 15 15 15 15 15 15 15 14 15 15 15 16 15 16 16 16 17 17 16 17 16 16 16 15 16 15 16 16 15 14 14 13
10 10 11 11 11 12 12 12 12 13 13 13 14 15 15 15 15 16 15 15 15 15 14 15 15 15 16 16 16 17 17 17 17 17 16 16 16 16 15 15 15 15 14 14 13
10 10 10 11 11 12 12 12 12 12 13 13 14 15 15 15 15 15 16 15 15 15 15 15 15 15 16 16 16 17 17 17 17 17 17 16 16 15 15 15 15 16 15 13 12
10 10 10 11 11 11 12 12 12 12 12 13 13 14 16 15 15 16 16 16 15 15 16 15 15 15 15 15 16 17 17 17 17 17 17 17 17 14 15 16 16 15 15 15 14
10 10 10 10 11 11 11 11 12 12 12 12 13 14 15 15 15 16 15 15 15 15 16 15 14 15 15 15 16 17 17 17 17 17 17 17 17 17 16 16 16 15 14 15 14
10 10 10 10 10 11 11 11 11 12 12 12 13 13 14 14 14 15 15 15 15 15 15 15 14 16 16 15 16 17 17 18 17 18 18 17 17 17 17 16 16 15 15 14 14
9 10 10 10 10 10 10 10 11 11 12 12 12 13 13 13 14 14 15 14 14 15 14 15 14 15 17 16 16 16 16 17 18 18 18 18 17 18 17 17 16 16 15 14 14
9 9 9 10 10 10 10 10 10 11 12 12 13 14 13 12 13 14 14 14 14 15 14 14 14 16 16 16 16 16 17 17 18 18 18 18 17 17 17 17 16 16 15 15 15
9 9 9 9 9 9 9 8 8 9 10 13 12 13 13 13 13 13 13 14 14 14 14 14 16 16 16 16 16 16 17 18 18 18 18 17 17 17 16 15 15 16 15 15 16
9 9 9 9 9 9 9 9 10 10 9 13 13 14 12 12 13 13 13 13 13 14 14 14 16 15 16 16 16 16 18 18 18 18 18 17 17 16 16 16 16 16 16 16 16
9 9 9 9 9 8 8 9 9 9 7 13 14 13 13 13 14 13 13 12 13 13 14 14 16 15 15 16 17 17 18 18 18 18 18 17 17 18 17 16 16 17 16 17 16
9 8 8 8 8 8 8 8 9 8 7 13 14 14 13 13 14 13 13 13 14 14 14 15 16 15 16 17 17 18 18 18 18 18 16 17 16 18 17 17 17 16 16 16 16
8 8 8 8 8 8 8 8 7 7 12 13 14 14 13 13 14 13 13 13 13 13 14 15 15 16 16 16 17 18 18 17 15 13 13 15 15 18 18 18 17 17 16 16 16
8 8 8 7 7 7 7 7 7 10 11 13 12 13 13 13 14 13 13 13 13 14 14 14 16 16 17 17 18 18 18 17 14 11 14 15 16 18 18 18 17 17 17 16 15
8 8 7 7 7 7 7 6 9 10 11 11 12 13 13 13 13 13 13 13 14 14 14 15 16 17 17 17 18 18 18 18 18 16 14 16 16 18 18 18 17 18 17 16 15
8 7 7 7 7 7 6 7 9 11 11 11 11 12 13 13 14 13 14 14 14 15 15 15 15 16 17 17 18 18 18 18 17 14 14 14 16 17 18 18 17 17 17 17 16
7 6 6 6 6 6 6 7 9 11 10 9 11 11 13 13 14 14 14 14 15 15 15 15 14 17 17 17 18 18 18 18 17 17 11 10 15 17 17 17 18 18 18 17 17
6 6 6 5 5 6 7 8 8 10 10 9 11 12 12 13 14 14 14 15 15 15 15 15 15 16 16 17 17 18 18 18 18 17 17 16 16 17 17 16 17 17 17 17 16
6 5 5 4 5 6 6 6 6 9 10 11 10 11 12 13 14 14 15 15 15 16 16 16 15 15 16 17 18 18 18 18 18 18 18 15 17 18 17 17 17 17 17 17 16
5 5 5 5 5 5 5 7 8 9 11 10 11 11 12 13 13 14 15 16 16 16 16 16 16 16 16 17 17 18 18 18 18 18 18 18 17 17 17 17 17 17 17 16 16
6 6 6 5 5 5 5 7 9 9 10 10 11 11 11 12 13 13 14 15 16 17 16 16 17 16 17 17 17 17 17 17 18 18 18 18 17 18 18 18 17 17 18 17 16
5 5 6 6 6 6 7 8 8 10 9 11 11 12 12 12 12 13 12 14 15 16 17 17 17 17 17 17 16 17 17 17 17 18 18 18 18 18 18 17 17 17 17 17 17
6 5 6 6 6 6 8 8 9 9 11 10 10 11 12 12 12 12 13 13 13 16 16 17 17 17 17 17 16 16 17 17 17 17 18 18 18 18 18 17 17 16 16 17 17
Height
3149 3149 3149 3148 3148 3147 3148 3148 3149 3151 3153 3154 3156 3158 3159 3160 3162 3164 3167 3169 3170 3172 3173 3173 3174 3175 3174 3174 3173 3174 3174 3171 3174 3176 3175 3174 3174 3176 3175 3174 3173 3173 3173 3172 3172
3147 3147 3147 3147 3147 3147 3146 3147 3148 3149 3151 3153 3154 3156 3158 3160 3162 3164 3166 3167 3169 3171 3173 3173 3175 3175 3173 3173 3173 3174 3175 3175 3174 3176 3177 3176 3174 3176 3176 3176 3176 3175 3174 3173 3173
3145 3145 3145 3145 3145 3145 3145 3145 3146 3147 3149 3151 3152 3154 3156 3159 3162 3164 3164 3166 3168 3171 3172 3173 3174 3175 3174 3174 3175 3174 3176 3176 3175 3176 3176 3178 3178 3176 3178 3179 3179 3177 3175 3173 3174
3144 3143 3143 3143 3143 3143 3143 3143 3144 3145 3146 3147 3149 3152 3154 3156 3161 3161 3163 3165 3167 3169 3171 3172 3174 3174 3174 3173 3173 3174 3175 3176 3176 3176 3176 3178 3179 3178 3180 3182 3179 3175 3173 3172 3172
3142 3141 3141 3140 3140 3141 3141 3141 3142 3142 3143 3144 3146 3148 3151 3154 3157 3159 3161 3163 3166 3167 3169 3171 3173 3172 3172 3172 3174 3175 3175 3176 3177 3178 3177 3178 3177 3177 3181 3181 3177 3175 3174 3173 3173
3139 3139 3139 3138 3138 3138 3139 3139 3139 3140 3141 3141 3142 3144 3146 3151 3153 3155 3159 3162 3164 3165 3167 3170 3172 3172 3172 3171 3173 3176 3176 3176 3178 3178 3178 3178 3176 3177 3178 3180 3178 3176 3175 3175 3173
3136 3136 3136 3136 3136 3136 3136 3137 3137 3138 3138 3139 3140 3141 3142 3150 3149 3151 3155 3158 3161 3164 3165 3168 3170 3170 3169 3168 3172 3175 3175 3177 3177 3177 3178 3178 3178 3174 3176 3177 3176 3178 3178 3179 3179
3134 3134 3133 3133 3134 3134 3134 3134 3134 3135 3135 3136 3137 3138 3139 3142 3143 3147 3152 3156 3159 3161 3163 3167 3169 3168 3168 3169 3169 3171 3174 3175 3176 3176 3176 3179 3176 3169 3173 3172 3174 3177 3178 3178 3180
3131 3131 3130 3130 3131 3131 3131 3132 3132 3132 3132 3133 3135 3136 3138 3138 3142 3146 3148 3153 3156 3159 3162 3165 3166 3166 3166 3167 3169 3170 3171 3173 3173 3174 3176 3177 3175 3174 3173 3172 3175 3176 3178 3176 3177
3128 3128 3127 3127 3128 3128 3128 3129 3129 3129 3129 3130 3132 3136 3136 3138 3139 3142 3145 3148 3151 3156 3160 3162 3163 3163 3164 3166 3166 3168 3170 3171 3170 3172 3173 3174 3173 3175 3173 3174 3175 3178 3178 3178 3177
3124 3124 3124 3124 3124 3125 3126 3127 3128 3127 3125 3127 3128 3131 3133 3133 3133 3137 3141 3145 3148 3151 3154 3158 3160 3159 3162 3164 3167 3168 3170 3168 3168 3170 3171 3171 3172 3171 3172 3174 3176 3175 3174 3173 3168
3120 3120 3120 3121 3121 3122 3123 3123 3123 3123 3123 3123 3125 3127 3129 3129 3130 3132 3138 3141 3143 3146 3152 3156 3154 3158 3161 3163 3165 3166 3166 3166 3167 3167 3169 3170 3169 3169 3169 3169 3170 3171 3169 3166 3163
3117 3117 3117 3117 3118 3119 3120 3119 3120 3118 3118 3118 3120 3123 3129 3128 3128 3129 3135 3138 3141 3144 3147 3150 3150 3156 3159 3161 3162 3162 3161 3163 3165 3164 3168 3168 3168 3166 3167 3165 3167 3166 3164 3161 3161
3113 3113 3113 3114 3116 3115 3117 3118 3117 3117 3117 3112 3113 3116 3121 3125 3125 3128 3132 3137 3139 3142 3147 3150 3151 3153 3156 3158 3161 3160 3160 3162 3162 3164 3164 3164 3166 3164 3163 3164 3164 3163 3161 3160 3159
3110 3109 3109 3110 3110 3113 3114 3115 3114 3118 3118 3110 3107 3111 3117 3118 3124 3123 3129 3133 3136 3140 3145 3142 3145 3150 3153 3153 3156 3159 3158 3160 3161 3160 3161 3163 3163 3161 3161 3159 3160 3158 3158 3160 3157
3106 3106 3106 3107 3107 3108 3110 3113 3115 3119 3112 3107 3104 3104 3111 3114 3120 3123 3127 3132 3137 3139 3141 3142 3145 3147 3149 3151 3154 3155 3158 3158 3158 3158 3161 3160 3160 3156 3155 3153 3156 3157 3157 3158 3155
3104 3104 3104 3104 3104 3105 3108 3111 3115 3112 3109 3108 3104 3103 3106 3110 3116 3120 3124 3127 3130 3135 3135 3138 3138 3142 3146 3148 3150 3152 3154 3155 3159 3159 3159 3158 3160 3153 3151 3152 3154 3156 3157 3157 3155
3102 3102 3102 3102 3101 3103 3105 3109 3109 3107 3107 3108 3108 3107 3106 3108 3113 3118 3120 3124 3128 3132 3135 3137 3137 3136 3141 3144 3146 3149 3151 3152 3159 3162 3155 3156 3154 3151 3150 3150 3150 3151 3154 3154 3152
3100 3100 3100 3099 3100 3101 3105 3105 3105 3106 3108 3107 3104 3105 3108 3109 3113 3115 3118 3121 3124 3128 3133 3133 3132 3135 3137 3140 3144 3146 3147 3151 3151 3153 3154 3152 3151 3149 3147 3147 3147 3146 3148 3150 3151
3099 3099 3099 3099 3100 3101 3102 3101 3102 3104 3106 3107 3105 3106 3106 3107 3110 3112 3115 3117 3120 3125 3129 3130 3131 3131 3134 3138 3140 3142 3146 3147 3148 3151 3154 3150 3149 3145 3145 3143 3143 3144 3144 3146 3147
3099 3100 3100 3099 3100 3100 3100 3100 3100 3103 3107 3107 3104 3104 3106 3105 3107 3108 3111 3114 3116 3120 3125 3127 3132 3126 3130 3132 3134 3138 3140 3142 3145 3146 3148 3153 3146 3143 3143 3142 3141 3141 3141 3142 3143
3098 3099 3099 3099 3101 3099 3098 3100 3101 3100 3106 3103 3102 3101 3102 3104 3106 3106 3106 3109 3112 3115 3117 3123 3127 3125 3127 3128 3129 3132 3134 3136 3140 3143 3142 3142 3141 3138 3140 3139 3139 3139 3141 3140 3141
3097 3097 3096 3098 3098 3098 3098 3097 3097 3096 3100 3098 3098 3099 3099 3100 3102 3100 3100 3103 3108 3111 3113 3119 3121 3123 3124 3125 3124 3126 3131 3132 3135 3137 3136 3138 3138 3137 3138 3139 3137 3138 3137 3137 3139
3097 3097 3096 3096 3096 3096 3094 3092 3093 3095 3095 3096 3095 3096 3096 3097 3100 3093 3094 3098 3103 3107 3111 3115 3117 3118 3120 3121 3122 3124 3127 3128 3130 3132 3130 3131 3132 3134 3135 3135 3135 3136 3134 3135 3137
3094 3095 3095 3095 3095 3096 3094 3092 3090 3092 3092 3095 3094 3096 3096 3095 3092 3088 3088 3093 3098 3101 3106 3110 3111 3115 3116 3118 3121 3123 3125 3126 3126 3126 3126 3125 3127 3129 3130 3129 3131 3133 3133 3132 3134
3092 3092 3092 3090 3092 3091 3090 3088 3088 3088 3090 3092 3093 3093 3093 3093 3092 3091 3090 3090 3092 3095 3098 3103 3107 3110 3112 3114 3117 3118 3119 3121 3122 3121 3121 3121 3121 3123 3125 3126 3127 3126 3129 3130 3131
3090 3089 3089 3089 3088 3087 3087 3086 3088 3088 3087 3089 3090 3089 3091 3091 3090 3091 3091 3090 3090 3092 3096 3100 3103 3106 3108 3112 3112 3114 3116 3118 3119 3119 3118 3118 3119 3120 3120 3121 3123 3123 3125 3126 3128
Wind_Speed
7 7 6 6 5 5 6 9 13 17 18 16 14 11 10 7 6 7 14 13 12 13 19 15 7 6 4 3 5 5 9 7 11 12 11 4 9 4 1 2 8 7 4 2 2
8 8 7 7 7 7 7 9 12 14 19 18 16 14 12 9 7 7 11 15 15 14 19 16 8 5 5 2 8 2 5 12 11 11 7 8 1 2 2 4 8 9 6 4 3
9 9 8 8 8 8 9 9 11 13 16 19 19 16 14 12 9 10 9 18 17 15 18 9 9 5 5 4 2 7 12 8 6 9 9 10 6 3 3 5 10 13 10 6 4
9 9 10 9 9 8 10 10 11 12 14 16 20 21 18 15 9 13 11 11 20 19 21 14 6 3 6 10 10 7 6 7 9 8 14 11 9 12 4 5 8 13 11 7 5
10 10 10 10 10 9 10 11 12 13 13 15 17 21 22 21 17 6 15 12 16 23 21 16 5 5 7 3 7 8 7 9 6 7 10 5 13 9 6 3 2 8 8 4 2
10 10 10 10 11 11 10 11 13 13 14 15 17 19 22 22 19 18 13 14 14 25 20 18 6 6 3 9 11 3 4 4 2 12 6 9 10 10 9 5 10 3 2 6 3
11 11 10 10 11 12 11 11 13 14 15 16 18 19 22 12 22 25 22 15 17 16 24 19 10 5 3 8 7 8 8 8 10 7 9 9 11 13 11 8 13 8 4 2 3
11 11 12 12 11 11 12 12 13 14 16 17 18 20 18 19 25 26 19 23 19 17 24 22 11 9 8 4 2 5 8 11 16 16 13 13 13 18 12 12 14 12 11 11 5
13 13 13 13 13 12 13 13 13 15 16 18 18 18 17 22 20 18 19 19 22 19 22 24 17 14 8 8 4 10 14 17 13 19 17 13 16 15 14 14 11 12 11 14 11
13 14 15 15 14 13 13 13 14 15 17 19 18 14 14 6 13 17 17 15 24 22 19 30 22 22 16 12 12 10 12 8 17 11 20 16 18 20 17 13 7 9 16 13 18
14 14 14 14 15 13 13 13 16 19 22 20 14 17 9 13 14 17 18 17 23 24 24 29 26 28 24 19 14 14 18 12 12 16 18 16 17 19 18 15 9 13 17 12 23
14 14 13 13 13 12 11 13 16 19 21 21 23 19 18 15 15 17 19 24 25 26 24 28 30 29 25 16 14 17 22 21 18 9 11 11 15 9 11 14 12 14 8 18 14
13 13 13 12 12 12 11 12 14 18 22 22 20 23 20 20 16 14 19 24 22 23 28 30 21 28 22 16 20 21 22 16 4 12 12 3 7 8 12 14 12 16 16 17 15
13 14 15 14 14 13 13 13 15 16 14 21 22 24 30 21 22 16 21 25 21 22 24 21 16 17 18 19 15 19 8 9 4 6 0 9 4 7 6 14 14 16 13 17 19
12 13 14 12 13 11 15 13 17 12 3 4 13 21 32 31 6 25 23 25 26 22 27 27 22 20 22 19 12 15 12 13 7 3 6 4 3 11 17 15 16 12 9 11 17
11 10 10 7 10 15 14 13 15 7 7 5 9 21 30 34 25 17 23 22 23 22 23 23 18 21 19 16 20 15 17 9 9 4 1 6 5 14 12 5 9 11 10 9 5
9 7 7 7 9 12 15 16 13 7 7 1 12 15 26 34 24 22 27 28 30 26 29 25 27 24 24 25 20 18 18 1 3 2 6 4 4 18 12 4 6 7 12 10 4
6 6 5 6 7 12 18 23 9 6 17 14 2 18 22 22 29 23 19 31 26 25 9 20 20 26 19 22 19 12 16 8 4 3 7 3 7 9 4 2 6 7 18 15 15
5 3 3 6 7 12 20 27 14 5 3 15 15 19 23 16 19 25 25 31 23 33 20 14 20 20 20 18 19 17 22 14 19 10 2 5 6 4 7 9 10 13 17 22 18
3 3 3 1 6 12 20 29 23 13 7 10 13 11 24 24 23 22 27 26 35 25 28 17 11 18 20 20 20 18 13 13 13 2 3 4 7 13 2 8 8 10 11 12 14
0 8 3 5 4 9 18 27 28 19 9 8 13 14 9 16 28 26 28 22 26 21 33 32 23 19 17 15 24 22 17 15 11 6 6 3 9 13 10 11 11 10 2 4 5
5 2 2 7 12 10 14 14 16 24 12 17 14 12 17 14 22 27 30 27 20 22 33 30 13 27 24 14 14 31 24 24 21 12 7 7 5 16 13 4 7 5 6 5 5
4 5 5 9 10 9 10 13 19 12 12 11 14 12 8 14 14 13 34 28 29 22 27 29 22 34 23 17 14 28 22 23 23 18 22 10 7 14 14 7 9 15 18 13 8
6 3 8 11 5 7 13 15 8 7 11 16 13 16 15 12 19 15 23 30 28 33 24 26 27 21 19 13 3 24 26 27 25 23 24 21 12 23 19 11 17 13 16 15 14
9 9 11 10 5 13 15 12 12 9 6 9 11 9 15 15 18 11 7 29 26 24 32 29 20 31 26 23 22 18 13 14 30 27 28 29 16 17 17 12 15 12 19 15 13
12 10 3 4 9 9 10 10 11 9 12 8 13 8 16 17 15 16 6 6 14 25 29 34 25 19 27 24 15 19 20 16 18 28 29 26 30 26 19 15 19 13 14 12 8
13 14 13 10 9 13 14 8 8 16 11 12 16 16 13 15 18 18 9 7 4 19 25 27 27 26 25 26 18 17 20 16 14 12 22 20 16 19 25 25 20 17 17 16 10
Wind_Direction
304 296 288 277 270 249 229 212 208 209 216 219 220 217 216 208 193 181 181 176 165 153 137 141 93 61 307 278 134 212 102 162 129 130 119 128 124 169 224 38 22 356 6 28 178
294 293 286 279 262 253 238 226 222 215 214 219 221 221 218 210 192 149 166 174 178 164 154 145 139 112 21 179 154 189 167 147 133 128 128 155 336 257 281 57 11 357 339 284 237
290 286 286 278 269 256 248 240 231 225 218 217 220 223 223 217 209 163 163 182 182 172 172 180 153 87 69 102 104 85 78 169 129 146 119 173 171 55 74 15 30 6 349 297 249
289 284 281 281 273 262 253 250 243 235 230 224 220 221 223 220 220 197 188 180 190 179 181 172 176 9 357 291 211 145 104 134 106 121 144 151 147 112 82 48 24 353 1 314 270
282 285 280 278 277 268 257 251 250 245 238 234 228 223 222 221 215 205 197 187 185 183 191 198 151 354 53 139 220 196 165 128 123 150 192 258 181 217 322 321 2 344 0 17 278
278 280 282 278 274 272 265 253 250 248 244 239 236 231 229 224 222 223 203 197 187 190 202 200 143 313 354 25 211 144 174 197 260 202 207 208 260 231 279 242 310 216 30 18 55
278 277 277 279 276 270 268 261 250 246 245 243 239 233 232 213 225 224 211 194 199 190 201 201 211 291 349 84 172 171 162 231 215 209 226 222 256 261 235 282 274 253 240 111 71
279 277 278 276 274 273 266 264 256 246 243 245 244 238 229 219 225 225 223 214 209 198 202 201 221 252 295 267 258 229 186 216 227 225 234 223 280 216 243 285 304 281 268 291 242
272 275 276 276 276 272 270 263 259 251 243 243 246 245 234 232 233 235 229 215 210 208 192 195 225 230 209 262 227 203 219 217 239 231 236 220 280 259 253 265 299 294 268 294 274
269 269 272 276 273 270 268 263 259 252 244 240 243 246 233 225 226 231 221 216 206 204 196 205 226 225 195 216 216 201 224 239 273 195 219 238 268 260 272 246 303 259 253 267 262
279 273 270 270 270 265 261 263 255 249 242 233 226 223 208 191 200 215 206 200 198 197 200 198 217 221 181 198 242 273 290 262 245 217 234 257 255 265 291 240 250 272 253 270 286
279 278 274 269 264 261 257 257 257 261 260 251 239 220 186 181 202 176 190 190 193 190 191 200 216 199 197 221 256 268 282 268 258 231 224 247 247 275 266 242 251 256 220 269 287
279 277 275 270 262 254 243 225 237 258 271 242 241 233 191 202 196 177 194 191 191 191 195 204 224 194 215 242 264 273 284 242 248 176 203 287 292 263 235 234 233 281 262 276 301
285 281 275 269 260 251 245 238 241 252 274 265 238 227 193 194 214 185 208 191 189 207 193 215 184 208 220 247 261 270 266 238 173 137 123 11 325 337 276 229 242 283 264 277 299
289 286 283 270 254 235 230 230 228 230 314 271 225 219 198 204 224 205 190 196 194 201 193 211 209 221 242 240 234 263 264 262 265 293 250 306 316 310 353 281 265 266 268 306 298
292 289 285 280 243 222 218 214 200 192 257 296 241 213 198 212 214 186 190 197 195 199 209 230 224 230 229 252 267 262 265 242 274 242 155 251 319 302 331 233 275 308 272 277 304
296 290 283 270 241 213 203 189 181 208 225 217 228 221 205 210 205 187 194 199 205 216 225 222 230 228 240 258 255 244 243 262 333 322 215 241 283 283 301 283 265 235 246 231 242
298 291 281 257 233 204 197 185 205 245 236 345 333 224 210 201 195 193 201 211 213 213 213 232 242 226 225 237 251 239 233 201 202 214 257 256 226 306 243 221 317 251 214 231 225
294 291 262 238 226 203 197 197 206 165 344 355 25 207 225 216 201 203 213 216 213 212 219 217 239 216 232 230 232 248 227 237 233 262 228 257 266 290 345 242 289 206 214 218 213
298 163 83 332 218 213 210 213 217 215 333 6 0 337 231 223 209 219 212 219 222 223 207 222 264 230 223 229 237 241 220 213 228 199 232 268 255 245 208 242 253 214 207 214 211
171 154 89 21 339 246 234 234 231 210 304 314 329 294 278 247 217 224 228 229 218 229 211 226 243 235 250 250 235 221 226 229 238 233 150 167 245 255 236 262 232 245 280 252 251
174 259 199 4 322 288 268 275 282 258 250 289 306 295 282 308 235 231 236 232 220 231 209 217 233 253 269 257 253 227 229 227 244 247 256 245 226 188 209 210 253 219 230 251 258
225 277 291 327 321 276 275 279 293 276 257 285 308 297 316 311 305 298 231 217 224 227 216 212 229 247 276 262 246 224 223 222 233 246 242 238 240 190 185 258 213 248 260 247 234
216 243 264 300 327 304 290 271 286 278 249 298 302 286 270 301 315 306 230 223 226 232 225 215 223 233 233 254 26 209 220 223 231 236 244 258 268 216 199 252 227 221 256 251 273
236 238 248 250 330 286 279 289 303 313 292 280 276 274 313 294 328 20 205 228 227 230 219 212 222 231 245 262 266 285 274 295 242 238 243 252 249 234 229 252 210 229 254 235 212
259 257 291 203 260 288 267 282 290 221 278 212 317 247 289 288 308 302 3 151 157 188 201 212 218 226 235 245 269 275 268 284 304 245 244 257 253 264 262 217 213 221 194 186 201
267 273 278 266 284 285 246 260 253 289 240 267 335 307 297 277 302 293 263 64 51 192 199 211 220 227 233 248 273 273 267 297 293 317 252 262 276 271 261 223 220 204 202 191 203